Temp
14 14 14 14 14 14 14 14 14 13 13 13 13 13 13 12 12 12 12 12 12 12 12 12 12 12 12 12 12 11 11 10 10 10 9 9 9 9 9 8 8 8 7 7 7 7 6 6 5 5 5 4 4 4 4 4 4 3 3 3 3 3 2 2 2 2 2 2 2
14 14 14 14 14 13 13 13 13 13 13 13 13 13 13 12 12 12 12 12 12 12 12 12 12 12 12 12 12 11 11 10 10 10 10 9 9 9 9 9 8 8 8 7 7 7 6 6 5 5 5 4 4 4 4 4 4 3 3 3 3 3 2 2 2 2 2 2 2
14 14 14 13 13 13 13 13 13 13 13 12 12 12 12 12 12 12 12 12 12 12 11 11 12 12 11 11 11 11 11 10 10 10 10 10 10 9 9 9 9 8 8 8 7 7 7 6 6 5 5 4 4 4 4 4 4 4 3 3 3 3 2 2 2 2 2 2 2
14 14 13 13 13 13 13 13 12 12 12 12 12 12 11 12 12 12 12 12 11 11 11 11 11 11 11 11 11 11 11 11 10 10 10 10 10 10 10 9 9 9 9 8 8 7 7 6 6 5 5 5 4 4 4 4 4 4 3 3 3 3 2 2 2 2 2 2 2
13 13 13 13 13 13 13 12 12 12 12 12 12 11 11 11 11 11 12 11 11 11 11 11 11 11 11 11 11 11 11 11 11 10 10 10 10 10 10 10 9 9 9 9 8 8 7 7 6 5 5 5 4 4 4 4 4 4 3 3 3 3 3 2 2 2 2 2 2
13 13 13 12 12 12 12 12 12 12 12 12 11 11 11 11 11 11 11 11 11 11 11 11 11 11 11 11 11 11 11 11 11 10 10 10 10 10 10 9 9 9 9 9 8 8 7 7 6 5 5 5 5 5 4 4 4 4 3 3 3 3 3 2 2 2 2 2 2
12 12 12 12 12 12 12 11 11 11 11 11 11 11 11 11 11 11 11 11 11 11 11 11 11 11 11 11 11 11 11 11 10 10 10 10 10 10 9 9 9 9 9 8 8 8 7 7 6 5 5 5 5 4 4 4 4 4 3 3 3 3 3 2 2 2 2 2 2
12 12 12 11 11 11 11 11 11 11 11 11 11 11 11 11 11 11 11 11 11 11 11 11 11 11 11 11 10 10 10 10 10 10 10 10 10 9 9 9 9 9 9 9 8 8 7 7 6 6 5 5 5 4 4 4 4 4 3 3 3 3 3 3 2 2 2 2 2
12 11 11 11 11 11 11 11 11 11 11 11 11 11 11 11 11 11 10 10 11 10 10 10 11 11 10 10 10 10 10 10 10 10 10 10 9 9 9 9 9 9 9 9 8 8 7 7 6 6 5 5 5 4 4 4 4 4 3 3 3 3 3 3 2 2 2 2 2
11 11 11 11 11 11 11 11 10 10 10 10 10 10 10 10 10 10 10 10 10 10 10 10 10 10 10 10 10 10 9 9 9 9 9 9 9 9 9 9 9 9 9 9 9 8 7 7 6 6 5 5 5 5 5 4 4 4 3 3 3 3 3 3 2 2 2 2 2
11 11 11 11 10 10 10 10 10 10 10 10 10 10 10 10 10 10 10 10 10 10 10 10 10 10 9 9 9 9 9 9 9 9 9 9 9 9 9 9 8 8 9 9 9 8 7 6 6 6 5 5 5 5 4 4 4 4 3 3 3 3 3 3 2 2 2 2 2
10 10 10 10 10 10 10 10 10 10 10 10 10 10 10 10 10 10 10 10 10 10 10 10 10 10 10 10 10 10 10 9 9 9 9 8 8 8 8 8 8 8 8 8 8 8 7 6 6 6 5 5 5 4 4 4 4 3 3 3 3 3 2 2 2 2 2 2 2
10 10 10 10 10 10 10 10 10 10 10 10 10 10 10 10 10 10 10 10 10 10 10 10 10 10 10 10 10 10 10 9 9 8 8 8 8 8 8 8 8 7 7 8 7 7 6 6 6 6 5 5 5 4 4 4 4 3 3 3 3 2 2 2 2 2 2 2 1
10 10 10 10 10 10 10 10 10 10 10 10 10 10 10 10 10 10 10 10 10 10 10 10 10 10 10 10 10 9 9 9 8 8 7 7 7 7 7 7 7 7 7 7 7 6 6 6 6 5 5 5 5 4 4 4 3 3 3 2 2 2 2 2 2 2 2 1 1
10 10 10 10 10 10 10 10 10 10 10 10 10 10 10 10 10 10 10 10 10 10 10 10 10 10 10 9 9 8 8 7 7 7 6 6 6 6 6 6 6 6 6 6 6 6 6 6 5 5 5 5 4 4 4 4 3 3 3 2 2 2 2 2 2 2 1 1 1
9 10 10 10 10 10 9 9 9 9 10 10 10 10 10 10 10 10 10 10 10 9 9 9 9 9 8 8 8 7 7 6 6 6 6 6 6 6 6 6 6 6 5 5 5 5 5 5 5 5 4 4 4 4 4 4 3 3 3 2 2 2 2 2 2 2 1 1 1
9 9 9 9 9 9 9 9 9 9 9 10 10 10 10 10 10 10 10 9 9 9 8 8 8 8 7 7 7 6 6 6 5 5 5 5 5 5 5 5 5 5 5 5 5 5 5 5 5 4 4 4 4 4 4 3 3 3 3 2 2 2 2 2 2 1 1 1 1
9 9 9 9 9 9 9 9 9 9 9 9 10 10 10 9 9 9 9 9 9 8 8 8 8 7 7 7 6 6 6 5 5 5 5 5 5 5 5 5 5 5 5 5 4 4 4 4 4 4 4 3 3 3 3 3 3 3 2 2 2 2 2 2 2 1 1 1 1
9 9 9 9 9 9 9 9 9 9 9 9 9 9 9 9 9 9 9 8 8 8 7 7 7 7 6 6 6 6 5 5 5 5 5 5 5 5 5 5 5 5 4 4 4 4 4 4 4 4 3 3 3 3 3 3 2 2 2 2 2 2 1 1 1 1 1 1 1
9 9 9 9 8 8 8 8 9 9 9 9 9 9 9 9 8 8 8 8 7 7 6 6 6 6 6 6 5 5 5 5 5 5 5 4 4 4 4 4 4 4 4 4 4 4 4 3 3 3 3 3 3 3 3 2 2 2 2 2 1 1 1 1 1 1 1 1 1
9 9 8 8 8 8 8 8 8 8 8 8 8 8 8 8 7 7 7 6 6 6 5 5 5 5 5 5 5 5 5 5 4 4 4 4 4 4 4 4 4 4 4 4 4 4 3 3 3 3 3 3 2 2 2 2 2 2 1 1 1 1 1 1 1 1 1 1 0
8 8 8 8 8 8 8 8 8 8 8 8 7 7 7 7 6 6 6 6 5 5 5 5 5 4 4 4 4 4 4 4 4 4 4 4 4 4 4 4 4 4 4 3 3 3 3 3 3 3 3 2 2 2 2 2 2 1 1 1 1 1 1 1 1 0 0 0 0
8 8 8 8 7 7 7 7 7 7 7 7 7 6 6 6 5 5 5 5 5 4 4 4 4 4 4 4 4 4 4 4 4 4 4 4 4 4 4 4 3 3 3 3 3 3 3 3 3 2 2 2 2 2 2 2 1 1 1 1 1 1 1 1 1 0 0 0 0
8 7 7 7 7 7 7 7 7 6 6 6 6 5 5 5 5 5 4 4 4 4 4 4 4 4 4 4 4 3 3 3 3 3 3 3 3 3 3 3 3 3 3 3 3 2 2 2 2 2 2 2 2 2 2 2 1 1 1 1 1 1 1 1 1 0 0 0 0
7 7 7 6 6 6 6 6 6 5 5 5 5 5 5 4 4 4 4 4 4 4 4 4 4 3 3 3 3 3 3 3 3 3 3 3 3 3 3 3 3 3 2 2 2 2 2 2 2 2 2 2 2 2 2 2 2 1 1 1 1 1 1 1 1 1 1 1 1
7 6 6 6 6 5 5 5 5 5 5 4 4 4 4 4 4 4 4 4 4 4 3 3 3 3 3 3 3 3 3 3 3 3 3 3 3 3 3 2 2 2 2 2 2 2 2 2 2 2 3 3 3 2 2 2 2 2 2 1 1 1 1 1 1 1 1 1 1
6 6 5 5 5 5 5 5 4 4 4 4 4 4 4 4 4 3 3 3 3 3 3 3 3 3 3 3 3 3 3 3 3 3 3 3 3 3 2 2 2 2 2 2 2 2 2 2 3 3 3 3 3 3 3 3 2 2 2 2 2 1 1 1 1 1 1 1 1
5 5 5 5 5 4 4 4 4 4 4 4 4 4 3 3 3 3 3 3 3 3 3 3 3 3 3 3 3 3 3 3 3 2 2 2 2 2 2 2 2 2 2 2 2 2 2 2 3 3 3 3 3 3 3 3 3 2 2 2 2 2 2 1 1 1 1 1 1
5 5 4 4 4 4 4 3 3 3 3 3 3 3 3 3 3 3 3 3 3 3 3 3 2 2 2 2 2 2 2 2 2 2 2 2 2 2 2 2 2 2 2 2 2 2 2 2 3 3 3 3 3 3 3 3 3 3 3 3 3 3 3 2 2 2 1 1 1
4 4 4 4 3 3 3 3 3 3 3 3 3 3 3 3 3 3 3 2 2 2 2 2 2 2 2 2 2 2 2 2 2 2 2 2 2 2 2 2 2 2 2 2 2 2 2 2 3 3 3 3 3 3 3 3 3 3 3 3 3 3 3 3 3 2 2 1 1
4 4 3 3 3 3 3 3 3 3 3 3 3 3 3 2 2 2 2 2 2 2 2 2 2 2 2 2 2 2 2 2 2 2 2 2 1 1 2 2 2 2 2 2 2 2 2 2 3 3 3 3 3 3 3 3 3 3 3 3 3 3 3 3 3 3 2 2 1
3 3 3 3 3 3 3 3 3 3 2 2 2 2 2 2 2 2 2 2 2 2 2 2 2 2 2 2 1 1 1 1 1 1 1 1 1 1 1 1 1 1 1 1 2 2 2 2 3 3 3 3 3 3 3 3 3 3 3 3 3 3 3 3 3 3 2 2 2
3 3 3 3 2 2 2 2 2 2 2 2 2 2 2 2 2 2 2 2 2 1 1 1 1 1 1 1 1 1 1 1 1 1 1 1 1 1 1 1 1 1 1 1 2 2 2 2 3 3 3 3 3 3 3 3 3 3 3 3 3 3 3 3 3 2 2 2 2
3 3 3 2 2 2 2 2 2 2 2 2 2 2 2 2 2 1 1 1 1 1 1 1 1 1 1 1 1 1 1 1 1 1 1 1 1 1 1 1 1 1 1 1 2 2 2 2 3 3 3 3 3 3 3 3 3 3 3 3 3 3 3 2 2 2 2 2 2
3 2 2 2 2 2 2 2 2 2 2 2 1 1 1 1 1 1 1 1 1 1 1 1 1 1 1 1 1 1 1 1 1 1 1 1 1 1 1 1 1 1 1 2 2 2 2 2 2 3 3 3 3 3 3 3 3 3 3 3 3 2 2 2 2 2 2 2 2
2 2 2 2 2 2 2 2 2 1 1 1 1 1 1 1 1 1 1 1 1 1 1 1 1 1 1 1 1 1 1 1 1 1 1 1 1 1 1 1 1 1 1 2 2 2 2 2 2 2 3 3 2 2 2 3 3 3 2 2 2 2 2 2 2 2 2 2 2
2 2 2 2 2 2 1 1 1 1 1 1 1 1 1 1 1 1 1 1 1 1 1 1 0 0 0 0 0 0 0 0 0 0 0 1 1 1 1 1 1 1 1 1 2 2 2 2 2 2 2 2 2 2 2 2 2 2 2 2 2 2 2 2 2 2 2 2 2
2 2 2 1 1 1 1 1 1 1 1 1 1 1 1 1 0 0 0 0 0 0 0 0 0 0 0 0 0 0 0 0 0 0 0 1 1 1 1 1 1 1 1 1 2 2 2 2 2 2 2 2 2 2 2 2 2 2 2 2 2 2 2 2 2 2 2 2 1
1 1 1 1 1 1 1 1 1 1 1 1 1 1 0 0 0 0 0 0 0 0 0 0 0 0 0 0 0 0 0 0 0 0 0 1 1 1 1 1 1 1 1 1 2 2 2 2 2 2 2 2 2 2 2 2 2 2 2 2 2 2 2 2 1 1 1 1 1
1 1 1 1 1 1 1 1 1 1 0 0 0 0 0 0 0 0 0 0 0 0 0 0 0 0 0 -0 -0 0 0 0 0 0 0 1 1 1 1 1 1 1 1 1 2 2 2 2 2 2 2 2 2 2 2 2 2 2 2 2 2 1 1 1 1 1 1 1 1
1 1 1 1 1 1 1 0 0 0 0 0 0 0 0 0 0 0 0 0 0 0 -0 -0 -0 -0 -0 -0 -0 -0 0 0 0 0 0 1 1 1 1 1 1 1 1 1 1 2 2 2 2 2 2 2 2 2 2 2 2 2 2 2 1 1 1 1 1 1 1 1 1
Height
810 809 808 808 807 806 805 804 803 801 800 799 798 797 796 795 795 794 793 792 791 790 789 789 788 788 788 787 787 787 786 786 786 786 785 785 785 784 784 783 783 783 782 782 781 781 781 781 781 781 780 780 780 779 779 778 778 778 777 777 776 776 776 776 775 775 775 775 775
809 808 808 807 806 805 804 802 801 800 799 798 797 796 795 794 793 792 791 790 790 789 788 787 787 786 786 786 786 785 785 785 784 784 784 783 782 782 782 781 781 780 780 780 779 779 779 779 779 778 778 777 777 777 776 775 775 775 774 774 773 773 773 773 772 771 771 772 772
808 807 806 805 805 804 802 801 800 799 798 797 796 795 794 793 792 791 790 789 788 788 787 786 785 785 785 785 784 784 784 783 783 782 782 781 781 780 780 779 779 778 778 778 777 777 776 776 776 776 775 775 774 774 773 772 772 772 771 770 770 771 771 770 769 769 769 769 769
807 806 805 805 804 802 801 800 799 798 797 796 795 794 793 792 791 790 789 788 787 787 786 785 785 784 784 783 783 783 782 782 781 781 780 780 779 778 778 778 777 776 776 775 775 774 774 774 774 773 773 772 771 770 770 769 769 769 769 768 768 768 767 766 765 766 766 765 765
806 805 804 803 802 801 800 799 798 797 795 794 793 792 791 790 789 788 787 786 786 785 785 784 784 783 783 782 782 781 781 780 780 779 778 778 777 777 776 776 775 774 774 773 773 772 771 771 771 770 770 769 768 767 766 766 766 766 765 765 765 764 764 763 762 762 763 762 762
805 804 803 802 801 800 799 798 797 795 794 792 791 790 788 788 787 786 785 785 784 784 784 784 783 782 781 781 780 780 779 779 778 778 777 776 775 775 774 774 773 772 771 771 770 770 769 769 768 767 766 766 765 764 763 764 764 763 763 762 761 761 760 759 759 759 759 759 758
803 803 802 801 800 799 798 796 795 794 792 791 789 788 786 785 785 784 784 783 783 783 782 782 781 780 780 780 779 778 778 777 776 776 775 774 773 772 772 771 770 770 769 768 768 767 766 766 765 764 763 763 762 761 760 760 760 760 759 758 757 757 757 756 755 755 755 755 754
802 801 800 800 799 797 796 795 794 792 790 789 787 786 785 783 782 782 781 781 781 781 781 780 780 779 779 778 777 776 776 775 774 773 773 772 771 770 769 768 768 767 766 765 765 764 764 763 762 761 760 760 759 758 757 757 757 756 755 755 754 754 753 753 752 752 751 751 750
801 800 799 798 797 796 795 793 792 790 789 787 785 784 783 781 780 780 779 779 779 779 779 779 778 778 777 776 775 775 774 773 772 771 770 769 768 767 766 766 765 764 763 763 762 761 760 760 759 758 757 756 755 754 754 754 754 753 752 751 750 750 750 749 749 748 748 747 747
799 798 797 796 795 795 793 792 790 789 787 785 784 783 781 780 779 778 777 777 777 777 777 777 776 776 775 774 773 772 771 770 770 768 767 766 766 765 764 763 762 761 760 760 759 758 758 757 756 755 754 753 752 751 750 750 750 750 748 748 747 746 746 745 745 745 744 744 743
798 797 796 795 794 793 791 790 788 787 785 784 782 781 780 779 777 776 776 775 775 775 775 775 775 774 773 772 771 770 769 768 767 766 765 764 763 762 761 760 759 758 757 757 756 756 755 754 753 751 750 750 749 748 747 747 747 746 745 744 744 743 742 741 742 742 741 740 740
797 796 795 794 792 791 790 788 787 785 784 782 781 780 779 777 776 775 775 774 774 773 773 773 772 771 770 769 768 767 766 765 764 763 762 760 760 759 758 757 756 755 755 754 753 753 752 751 750 748 747 746 746 745 744 743 743 743 742 741 740 740 739 738 738 738 738 737 737
795 795 793 792 791 790 788 787 785 784 782 781 780 778 777 776 775 774 773 773 772 771 771 770 770 769 767 766 765 764 763 762 761 760 759 758 757 756 755 754 753 752 751 751 750 750 749 748 747 746 745 744 743 742 741 740 740 739 738 737 737 736 735 734 734 735 735 735 734
794 793 792 790 789 788 786 785 784 782 781 780 778 777 776 775 774 773 772 771 770 769 768 768 767 766 765 764 762 761 760 760 759 758 756 755 754 753 752 751 750 750 749 748 748 747 746 745 744 743 742 741 740 739 739 738 737 736 735 735 734 733 732 731 731 731 731 731 730
793 791 790 789 788 786 785 784 782 781 780 778 777 776 775 774 773 772 770 769 768 767 766 765 764 763 763 762 760 760 758 758 757 755 754 753 752 751 750 749 748 747 746 745 745 744 744 743 741 740 740 738 737 736 735 735 734 733 732 731 730 729 728 728 728 728 728 728 727
791 790 789 787 786 785 783 782 780 779 778 777 775 775 773 772 771 770 769 768 767 765 765 764 762 761 760 760 759 758 757 755 755 753 752 750 750 748 747 746 745 745 744 743 742 741 740 740 739 738 737 735 734 733 732 731 731 730 729 728 727 726 725 725 725 724 724 724 724
789 788 787 785 784 783 782 780 779 778 776 775 774 773 772 770 770 768 767 766 765 764 763 762 761 760 758 757 757 756 755 753 752 751 750 748 747 746 745 744 743 742 741 740 739 738 737 736 735 735 734 733 731 730 729 728 727 726 725 724 723 722 721 721 721 721 720 720 720
787 786 785 784 783 781 780 779 777 776 775 773 772 771 770 769 768 766 765 765 763 762 760 759 758 758 756 755 754 753 752 751 750 748 747 746 744 743 742 741 740 739 738 737 736 735 734 733 732 731 730 730 728 727 726 725 723 722 721 720 720 719 718 717 717 717 717 717 716
786 785 784 782 781 780 778 777 776 774 773 772 770 769 768 767 766 765 763 762 761 760 759 757 756 755 754 753 752 750 750 749 747 745 744 743 742 740 739 738 737 736 735 734 733 732 731 730 729 728 727 726 725 724 722 721 720 719 718 717 716 715 714 714 714 713 713 713 713
785 783 782 781 780 778 777 775 774 773 771 770 769 767 766 765 764 762 761 760 759 758 757 755 754 753 751 750 749 748 747 746 745 743 741 740 739 738 736 735 734 733 732 731 730 729 728 727 726 725 724 723 721 720 719 718 717 715 714 713 712 711 710 710 710 710 710 710 710
783 782 780 779 778 777 775 774 772 771 770 768 767 765 764 763 761 760 759 758 757 756 755 753 752 751 749 748 747 745 744 743 742 740 739 738 736 735 734 733 732 730 729 728 727 726 725 724 723 722 721 720 718 717 715 715 713 712 711 710 709 708 707 707 707 706 706 706 706
782 780 779 778 776 775 773 772 770 769 767 766 765 763 762 760 759 758 757 756 755 753 752 751 750 749 747 746 745 743 741 740 739 738 736 735 734 732 731 730 729 727 726 725 724 723 722 721 720 719 718 716 715 713 712 711 710 708 707 706 705 705 704 704 704 703 703 703 703
780 779 777 776 775 773 771 770 768 767 765 764 762 761 760 758 757 756 755 753 752 751 750 749 748 746 745 744 742 740 739 737 736 735 734 732 731 729 728 727 726 725 723 722 721 720 719 718 716 715 714 713 711 710 709 708 707 705 704 703 702 701 701 700 700 700 700 700 700
778 777 775 774 772 771 769 768 766 765 763 761 760 759 757 756 755 754 752 751 750 749 748 746 745 744 742 741 740 738 737 735 733 731 730 729 728 727 725 724 723 722 720 720 719 718 717 715 714 712 711 710 708 707 705 704 703 702 701 700 699 698 697 697 697 697 696 696 696
777 775 774 772 770 769 767 766 764 763 761 760 758 757 755 754 753 751 750 749 747 746 745 744 743 741 740 738 737 735 734 733 731 729 727 726 725 724 723 721 720 719 718 717 716 715 715 714 712 710 709 707 706 704 703 701 700 699 698 697 696 695 694 693 693 693 693 693 692
775 773 772 770 769 767 765 764 762 761 759 758 756 755 754 752 751 750 748 747 745 744 743 742 740 739 737 736 734 733 731 730 729 727 725 724 722 721 720 719 717 716 715 714 713 713 712 711 710 709 707 706 704 702 700 699 697 696 695 694 693 692 691 690 689 689 689 689 689
773 771 770 768 767 765 764 762 760 759 757 756 755 753 752 750 749 748 746 745 743 742 741 739 738 737 735 734 732 730 729 727 726 725 724 722 720 718 717 715 715 713 712 711 711 710 709 708 707 706 705 704 702 700 698 696 694 693 692 691 690 689 688 686 686 685 685 685 685
771 770 768 766 765 763 762 760 759 757 756 755 753 751 750 749 747 746 744 743 741 740 739 737 736 735 733 731 730 728 726 725 724 722 721 719 718 716 714 713 711 710 710 709 708 707 706 705 704 703 702 701 699 697 695 694 692 690 690 688 687 686 685 684 683 682 682 682 681
770 768 766 765 763 761 760 759 757 756 755 753 751 750 748 747 745 744 743 741 740 738 737 735 733 732 730 729 727 725 724 722 721 720 718 717 715 713 712 710 709 707 707 706 705 705 703 702 701 700 699 698 697 695 693 691 689 688 687 685 685 684 683 682 680 679 678 678 677
768 766 765 763 762 760 759 757 756 755 753 751 750 748 747 745 744 742 741 739 738 736 735 733 731 730 728 726 725 723 721 720 719 717 716 714 712 710 709 708 706 705 704 703 703 701 700 699 698 697 696 695 694 692 690 688 686 685 684 682 681 681 680 679 677 676 675 674 674
767 765 764 762 760 759 757 756 754 753 751 750 748 747 745 743 742 740 739 738 736 734 732 731 730 727 725 724 722 721 719 717 716 715 714 712 710 708 706 705 703 702 701 700 700 699 697 696 695 694 693 691 690 689 687 685 684 682 681 680 678 677 676 675 674 673 672 672 672
765 764 762 760 759 757 755 754 753 751 750 748 747 745 743 742 740 739 737 736 734 732 730 728 727 725 723 721 720 718 716 715 714 712 711 710 708 705 704 702 700 699 698 698 697 696 695 693 692 691 690 688 687 685 684 682 681 679 678 677 675 674 673 673 672 671 671 670 670
764 762 761 759 757 755 754 753 751 750 748 746 745 743 741 740 738 736 735 734 732 730 728 726 724 722 720 719 717 715 714 712 711 710 708 707 705 703 701 699 698 697 696 695 694 693 692 691 689 688 687 685 684 683 681 680 678 677 675 674 673 672 671 670 670 669 669 669 668
763 761 760 758 756 754 753 751 750 748 746 745 743 741 740 738 736 734 732 731 730 728 726 724 722 720 719 717 715 713 711 710 708 707 706 704 703 701 699 697 695 694 693 693 692 690 689 688 687 685 684 683 681 680 678 677 675 674 672 671 670 669 668 668 667 667 667 666 666
761 760 758 756 755 753 751 749 748 746 745 743 740 739 737 736 734 732 730 729 727 725 723 721 720 718 716 715 713 711 710 708 706 705 703 702 700 698 696 694 692 691 691 690 689 688 687 685 684 683 681 680 678 677 675 674 672 671 670 668 667 666 666 665 665 665 664 664 663
760 759 757 755 753 751 750 748 746 744 742 740 739 737 735 733 732 730 729 727 725 722 720 718 717 715 714 712 710 709 708 706 704 702 700 699 698 696 694 691 690 688 688 688 686 685 684 683 681 680 679 677 675 674 672 671 670 668 667 666 665 664 664 663 663 662 661 661 660
759 757 755 754 751 750 748 746 744 742 740 739 737 735 733 731 729 728 726 725 723 720 718 716 714 713 711 710 708 706 705 704 702 700 698 696 695 693 691 689 687 685 685 685 684 683 681 680 679 678 676 675 673 671 670 669 667 666 665 664 663 662 661 661 660 659 659 658 658
757 756 754 752 750 748 746 745 743 741 739 737 735 733 732 730 728 726 724 723 721 719 716 714 712 710 709 707 705 704 702 701 700 698 696 694 693 691 689 687 685 683 682 682 681 680 679 678 676 675 674 673 671 669 668 666 665 664 662 661 660 660 659 658 658 657 656 655 655
755 754 753 751 749 747 745 743 741 740 737 735 733 731 730 728 726 724 722 721 720 717 715 712 710 708 706 705 703 701 699 698 697 696 694 692 690 689 687 685 683 681 680 680 679 678 676 675 674 673 672 670 669 667 666 664 663 661 660 659 658 657 656 655 655 655 654 653 653
754 753 751 750 748 745 743 741 740 738 736 734 732 730 728 726 725 722 720 719 717 715 713 710 708 706 705 703 701 699 697 695 694 693 692 690 688 686 685 683 681 679 677 677 676 675 674 673 671 670 669 668 666 665 664 662 661 659 658 657 656 655 654 653 653 652 651 651 650
752 751 749 748 746 744 742 740 738 736 734 733 730 729 726 725 723 721 719 717 715 713 711 709 706 704 702 701 700 697 695 692 691 690 689 687 685 684 683 681 679 677 675 674 673 672 671 670 669 668 667 666 665 663 662 660 659 657 656 655 654 653 652 651 650 650 649 649 648
Wind_Speed
18 19 20 21 22 24 25 26 27 27 28 28 28 28 28 27 27 27 25 25 25 25 24 23 22 21 21 21 21 21 22 22 23 24 24 25 26 27 27 28 29 30 30 31 32 32 32 32 32 32 32 32 32 33 34 34 34 34 34 34 34 35 35 35 35 36 37 37 36
18 19 20 21 23 24 25 27 28 29 29 30 29 29 28 27 27 26 26 25 25 24 23 22 22 22 21 21 21 21 21 22 22 23 24 25 26 26 27 28 29 29 30 31 31 32 32 32 32 31 31 31 32 32 33 34 34 34 34 35 35 34 34 34 35 36 37 37 37
17 18 19 20 22 23 25 26 28 29 30 31 31 30 29 28 27 27 26 26 25 25 24 23 23 22 21 21 20 21 21 21 22 23 24 24 25 26 27 27 28 29 29 30 31 32 32 32 32 31 31 31 31 32 33 34 34 34 34 35 35 34 33 33 34 35 35 34 35
17 17 18 19 21 22 24 26 27 29 30 31 31 31 31 30 28 28 27 26 26 25 24 23 22 21 21 20 20 20 21 22 22 23 24 25 25 26 26 27 27 28 29 29 30 31 32 32 32 31 31 31 32 33 34 34 34 33 33 34 34 33 33 33 34 33 33 33 34
17 17 18 19 20 22 23 25 27 29 30 31 31 31 31 30 30 29 28 27 27 25 24 22 21 20 20 20 20 21 22 22 23 23 24 25 25 26 26 26 27 27 28 28 29 30 31 31 31 31 31 32 33 34 35 35 34 33 33 33 33 33 33 34 33 33 33 32 32
17 18 18 19 21 22 24 25 27 29 30 31 31 31 31 30 30 30 29 28 27 24 22 21 20 20 20 21 21 22 23 23 24 24 25 25 26 26 26 26 26 27 27 28 28 29 30 31 31 31 32 32 33 34 35 35 34 33 33 33 33 33 33 34 34 33 33 33 33
17 18 19 20 22 23 25 26 27 29 30 31 32 31 30 29 29 29 29 28 26 23 21 21 21 21 22 22 23 24 24 25 25 26 26 27 27 27 27 27 27 27 27 27 28 28 29 30 30 31 31 31 32 33 34 34 34 33 33 33 33 33 33 34 34 33 33 34 35
18 19 20 21 23 24 25 26 28 29 30 31 31 31 30 28 27 27 27 27 26 24 22 22 22 23 24 24 25 25 26 26 27 28 28 29 29 29 29 28 28 28 27 27 28 28 29 29 30 30 31 31 31 31 32 32 33 33 34 34 34 34 34 34 34 34 34 35 36
19 20 21 23 24 25 26 27 27 28 29 30 30 30 29 27 25 25 25 26 26 25 24 24 24 25 25 26 27 27 28 28 29 30 30 31 31 31 31 30 30 29 29 29 28 29 29 29 30 30 31 31 30 31 31 32 32 33 34 35 35 34 34 34 35 35 35 35 37
20 22 23 24 25 26 26 27 27 28 28 29 29 28 27 26 24 23 22 23 24 25 25 25 25 26 27 27 28 28 29 30 31 32 32 33 33 32 32 32 31 31 31 30 30 30 30 30 30 31 31 32 32 33 33 32 33 34 34 34 35 35 35 35 35 35 35 36 37
22 23 24 25 26 26 26 26 26 27 27 28 28 27 26 25 23 21 20 21 22 24 25 25 26 27 28 28 29 30 30 31 32 33 33 34 34 34 34 33 33 33 32 32 31 31 31 31 31 32 32 33 33 33 33 33 33 34 35 35 36 36 36 37 36 36 35 36 37
23 24 25 25 25 25 25 25 25 26 26 26 27 27 26 25 24 22 21 21 21 23 25 26 27 28 29 30 31 32 32 33 33 34 34 34 35 35 35 34 34 34 34 33 33 32 32 32 32 33 34 34 33 33 33 33 33 34 35 36 36 36 37 38 38 37 35 35 36
23 24 24 24 24 24 24 24 24 25 25 25 26 26 26 26 25 24 24 23 24 25 26 28 29 30 31 32 33 34 34 34 34 34 34 35 35 35 35 35 35 35 35 35 34 33 33 33 34 34 35 35 34 34 33 33 33 34 34 35 36 36 37 38 38 37 36 35 35
23 24 24 23 23 23 23 23 24 24 24 25 25 26 26 26 26 26 26 26 27 28 29 30 31 32 33 34 34 34 34 34 34 34 34 35 35 35 35 36 36 36 36 35 35 34 34 34 35 35 35 36 36 35 35 34 34 34 34 35 35 36 37 38 38 37 36 36 36
23 23 23 23 23 24 24 24 24 25 25 25 25 25 26 26 27 27 27 28 29 29 30 31 32 33 33 33 34 34 34 34 34 34 34 35 35 35 36 36 36 36 36 36 35 35 35 35 36 36 36 36 36 36 36 35 35 35 35 35 36 37 37 37 37 36 36 36 36
24 24 24 24 25 25 25 26 26 26 26 26 26 26 26 26 26 27 27 28 29 30 31 31 32 32 33 33 33 33 33 33 33 33 34 35 35 35 35 36 36 36 36 36 36 36 36 36 36 36 36 37 37 37 37 36 36 36 36 37 37 37 38 38 38 37 37 36 36
25 26 26 26 26 27 27 27 28 28 28 27 27 27 27 27 27 28 28 29 29 30 30 31 31 32 32 33 33 32 32 32 33 33 33 34 34 35 35 35 35 36 36 36 36 37 37 37 37 36 36 36 37 37 37 38 38 38 38 38 38 38 39 39 38 38 37 37 36
27 27 27 28 28 28 29 29 29 29 29 29 29 29 29 29 29 29 29 29 30 30 31 31 32 32 32 33 33 33 32 32 33 33 33 34 34 35 35 35 36 36 36 36 37 37 38 38 37 37 37 37 37 37 38 38 38 38 39 39 39 39 40 40 39 39 38 37 37
28 29 29 29 29 30 30 30 30 30 30 30 30 30 30 30 30 31 31 31 31 31 31 32 32 33 33 33 33 33 33 33 33 34 34 34 34 35 35 36 36 36 36 37 37 37 38 38 37 37 37 37 37 38 38 38 38 38 39 39 39 40 40 40 39 39 38 37 37
29 30 30 30 30 30 30 30 30 30 30 31 31 31 31 31 31 32 32 32 31 31 31 31 32 33 33 33 33 34 34 33 33 34 34 35 35 35 36 36 37 37 37 37 37 37 37 37 37 37 37 37 38 38 38 39 39 39 39 39 39 39 39 39 39 38 38 37 37
30 30 31 31 31 31 31 31 31 31 31 31 32 32 32 32 32 32 32 32 31 31 31 31 31 32 32 33 33 34 34 34 34 34 35 35 36 36 36 36 37 37 37 37 37 37 37 37 37 37 37 38 38 38 39 39 39 39 39 39 38 38 38 38 38 37 37 37 37
31 31 31 31 31 31 31 31 31 31 32 32 32 32 32 32 32 32 32 32 31 31 31 31 31 31 32 32 33 34 34 34 34 35 35 35 36 36 36 36 36 37 37 37 37 37 37 37 37 37 37 37 38 38 39 38 38 38 38 38 38 38 38 38 37 36 36 36 36
32 32 32 32 31 31 31 31 31 32 32 32 33 32 32 32 32 32 32 32 31 31 31 31 31 31 32 32 33 34 34 35 35 35 35 36 36 37 37 36 36 37 37 37 37 37 37 37 37 37 37 37 38 38 38 37 37 37 37 37 38 38 37 37 36 35 35 35 34
33 33 32 32 32 31 31 32 32 32 33 33 33 33 32 32 32 32 32 32 32 32 32 32 32 32 33 33 33 33 34 34 35 36 36 36 36 37 37 37 37 36 36 36 36 35 35 34 34 35 35 35 35 36 36 36 36 36 36 36 36 36 36 36 35 35 35 35 34
33 33 32 32 32 32 32 32 32 32 33 33 33 33 33 33 33 32 33 33 33 33 33 33 33 33 33 33 33 33 33 33 34 35 36 36 37 37 37 37 36 36 36 35 35 34 32 31 31 32 32 33 33 34 35 35 35 35 35 35 35 35 35 36 36 36 36 36 35
33 33 32 32 32 32 32 32 32 32 33 33 33 33 33 33 33 33 33 33 33 33 33 33 33 33 32 32 32 32 32 33 33 34 35 36 37 38 37 36 36 35 35 35 34 33 32 31 31 31 32 33 34 34 34 34 34 34 34 35 34 34 34 34 34 35 35 35 35
33 33 32 32 32 32 32 32 32 32 32 33 33 33 33 33 33 33 33 34 34 34 34 33 33 32 31 31 31 32 32 33 33 34 35 35 36 37 38 37 36 35 35 35 34 33 32 32 32 32 32 33 34 34 34 33 33 33 33 33 32 32 33 33 33 33 33 33 34
33 32 32 32 32 32 32 32 32 32 32 32 33 33 33 34 34 34 33 33 33 33 33 33 32 31 30 30 30 32 33 34 34 34 35 35 36 36 36 36 36 36 35 34 33 33 32 32 33 33 33 33 34 34 34 34 34 33 31 30 30 29 29 30 30 31 31 32 33
32 32 31 31 32 32 32 32 31 32 32 32 33 33 33 33 33 33 33 33 33 33 32 32 31 31 30 31 32 33 34 34 34 34 34 34 35 35 36 36 36 36 35 34 33 33 33 33 33 33 33 33 33 32 32 32 32 31 30 29 28 28 28 28 29 29 30 31 31
32 31 31 31 31 31 31 31 31 31 32 32 32 33 33 33 33 33 32 32 32 32 32 32 32 32 32 33 33 34 34 34 34 33 33 34 34 35 36 36 36 36 36 35 34 33 33 33 33 33 33 33 33 33 33 32 31 31 30 29 30 30 30 31 31 30 30 29 28
31 31 31 31 31 31 31 31 31 32 32 32 32 32 32 33 33 32 32 32 32 33 33 33 33 33 34 34 33 33 33 33 33 33 33 33 34 35 36 36 37 37 36 35 34 33 33 33 33 33 33 33 33 33 32 32 31 30 30 30 31 31 32 31 30 28 27 26 25
30 30 30 30 30 31 31 31 31 31 31 32 32 32 32 32 32 32 32 32 32 33 33 33 33 33 33 33 33 33 33 33 33 33 33 33 34 35 36 36 37 36 35 34 33 32 32 32 32 33 33 33 33 33 33 33 32 32 31 32 33 33 32 30 27 26 24 24 24
30 30 30 29 30 30 31 31 31 31 31 31 31 32 32 32 32 32 32 32 32 32 32 32 32 32 32 32 33 33 33 33 33 33 33 34 34 35 35 35 35 34 33 32 32 32 32 32 33 33 33 33 33 33 32 32 32 32 32 31 31 30 29 27 25 24 24 25 26
29 29 29 29 30 30 31 31 31 31 31 31 32 32 32 32 32 32 32 32 32 31 31 32 32 32 32 32 32 32 33 33 33 33 34 34 35 35 35 34 34 34 33 32 32 32 33 33 33 33 33 33 33 32 32 32 32 32 31 30 29 28 27 26 25 26 27 28 28
29 29 29 29 30 30 31 31 31 31 31 31 32 32 32 32 32 32 32 33 32 32 32 32 31 31 31 31 31 32 32 33 33 34 34 34 34 34 34 35 35 35 34 33 33 33 33 33 33 33 33 32 32 31 31 31 31 30 28 27 27 27 26 26 27 27 28 29 29
28 28 29 30 30 31 31 31 31 31 31 31 31 32 33 33 32 32 32 32 32 32 32 32 32 31 31 31 31 31 31 32 33 34 34 34 34 34 34 35 36 35 34 33 33 33 33 33 33 33 32 32 31 31 30 30 28 27 25 24 25 25 26 26 27 28 28 28 28
28 28 29 30 31 31 31 31 31 31 32 32 32 32 33 33 33 33 32 31 31 31 32 32 32 31 31 31 32 32 32 32 32 33 34 34 33 33 33 34 35 35 34 33 32 32 32 32 32 32 32 31 30 30 29 28 26 25 23 23 24 25 25 26 26 27 27 27 27
29 29 29 30 31 31 31 31 31 31 32 32 33 32 32 32 32 32 31 30 29 30 31 32 32 32 32 32 33 33 33 33 32 32 33 33 33 33 33 33 34 35 34 33 32 32 32 32 32 32 31 31 30 29 28 26 25 24 24 24 24 25 25 25 24 24 24 24 24
29 29 29 30 30 31 31 31 31 32 32 32 33 33 33 32 32 31 31 30 29 30 31 32 33 33 33 33 33 33 33 33 33 32 32 32 33 33 32 32 33 34 34 33 32 32 32 32 32 31 31 30 30 28 27 25 24 23 23 24 24 24 24 23 23 22 22 23 23
30 30 30 30 30 31 31 32 32 32 32 32 33 33 33 32 31 31 31 30 30 30 31 32 33 34 33 32 32 32 33 34 33 33 32 33 33 33 32 32 33 34 34 34 33 32 32 32 31 31 30 29 29 27 25 24 23 22 22 22 22 21 21 21 20 20 21 22 23
30 30 30 30 30 30 31 32 32 33 32 32 32 32 32 31 31 31 32 31 32 32 32 32 33 33 33 33 32 32 32 33 34 34 34 33 34 33 32 33 33 34 34 34 33 32 31 31 30 30 29 28 27 26 25 23 22 22 21 21 20 20 19 20 20 20 21 22 23
Wind_Direction
321 319 316 313 310 307 304 302 300 297 294 291 289 288 286 283 281 280 280 279 278 278 279 281 283 284 285 285 287 288 289 289 288 287 285 284 284 283 283 283 281 279 278 277 275 273 271 268 265 261 258 257 256 256 256 255 254 253 252 250 249 249 248 247 247 247 246 245 244
321 320 319 316 314 312 309 307 304 301 298 295 292 290 288 284 282 280 280 279 278 278 280 281 282 283 284 285 287 289 290 290 290 289 288 287 286 286 285 283 282 281 280 278 277 274 272 269 266 262 259 258 257 256 256 256 255 253 252 251 250 250 249 248 248 248 248 246 246
320 320 319 319 318 318 317 315 312 309 305 301 297 293 289 286 283 281 280 280 280 279 279 280 281 283 285 288 289 290 291 291 292 292 291 290 289 288 287 286 284 283 282 280 278 276 274 271 267 263 260 259 258 257 257 257 255 253 252 251 251 250 248 248 249 249 248 247 246
318 318 319 320 321 322 322 321 319 317 314 310 305 299 292 287 283 281 280 280 279 278 278 280 283 286 289 291 292 293 293 294 294 294 293 292 291 290 289 288 286 285 284 282 281 279 277 274 269 265 262 260 259 258 258 258 256 254 252 252 251 250 248 248 249 248 248 247 246
317 318 319 321 322 323 323 322 321 319 317 316 312 306 298 290 284 281 279 278 278 279 281 284 287 290 292 294 295 296 296 296 295 295 294 293 292 291 290 288 287 286 284 283 282 281 279 276 271 266 263 262 260 260 260 260 258 255 253 253 251 250 249 248 248 248 248 246 245
317 318 320 322 324 324 324 323 321 318 317 316 315 312 305 296 288 281 278 278 280 283 286 289 291 293 295 296 297 297 298 297 296 295 295 294 293 292 290 288 287 285 284 283 282 281 280 277 272 268 265 264 262 262 262 260 258 256 254 253 251 250 249 248 248 247 246 246 245
317 319 321 322 324 324 324 322 320 317 314 314 315 315 312 305 294 285 280 279 281 285 288 290 292 294 295 296 296 296 297 298 298 297 297 296 295 294 292 290 289 287 285 284 283 282 280 277 272 269 267 265 263 263 263 261 258 255 253 252 252 251 249 248 248 247 246 245 244
318 320 321 323 323 323 322 320 317 315 313 313 314 316 316 312 302 291 282 278 279 282 287 290 293 295 296 296 295 295 296 298 298 299 299 298 297 296 294 293 291 289 288 287 285 283 280 277 272 269 267 266 264 263 263 261 259 256 253 252 253 252 250 249 248 247 245 245 244
320 321 322 322 322 321 319 317 315 313 312 313 314 317 318 317 309 298 286 279 278 280 285 289 294 296 297 296 296 295 296 297 298 299 299 299 298 297 295 294 292 291 290 290 288 286 283 278 273 270 268 266 264 264 264 263 260 257 255 254 254 253 252 250 249 248 246 245 245
321 322 322 321 321 319 318 315 313 312 312 313 314 317 320 321 317 307 296 287 283 283 286 291 296 298 299 298 297 296 296 297 298 298 299 299 298 296 295 294 292 291 291 290 289 287 284 279 275 272 270 268 267 267 266 264 261 259 257 255 255 254 253 252 250 248 247 246 245
322 322 321 320 320 318 317 315 314 314 314 315 316 318 321 323 322 318 309 299 293 290 291 294 298 299 300 299 298 298 298 298 298 298 298 297 297 296 294 293 291 290 289 290 289 287 283 279 275 274 272 271 269 268 267 266 262 260 259 257 256 256 255 254 251 249 247 247 246
321 321 320 320 320 319 318 317 316 316 316 317 317 318 320 322 323 323 319 312 305 300 298 298 300 301 301 301 301 301 300 299 298 297 296 295 295 294 293 292 290 289 288 288 288 285 282 278 276 275 275 274 271 269 268 266 264 262 260 260 258 257 256 255 254 251 249 248 247
320 320 320 321 321 321 320 320 320 320 319 319 319 319 319 320 320 321 320 316 311 307 305 303 303 303 303 303 303 302 301 300 298 296 295 294 293 292 291 290 289 288 287 287 286 285 282 280 278 277 276 276 274 272 270 268 266 263 262 261 259 258 256 256 255 254 251 250 248
321 321 322 323 323 324 324 323 323 323 322 321 321 320 319 318 318 318 317 315 312 310 308 307 305 305 304 304 304 303 302 300 298 296 294 293 292 291 290 289 288 287 287 287 286 285 283 282 281 280 278 277 276 275 274 271 268 266 264 262 261 259 259 258 257 256 253 251 249
323 324 325 326 326 327 326 326 325 324 324 323 322 321 319 318 316 315 314 313 311 310 308 307 306 305 305 304 303 303 301 300 298 296 294 293 292 291 290 289 289 288 288 287 287 286 285 284 283 282 280 279 278 278 277 274 272 269 267 264 263 262 261 261 259 257 255 252 251
325 326 328 328 328 328 328 327 326 326 324 323 322 320 318 316 315 314 312 311 310 309 308 307 307 306 306 305 304 303 302 300 298 297 295 294 294 293 293 292 291 290 290 289 288 287 287 285 284 283 281 280 279 279 278 277 275 272 270 267 265 264 263 262 261 259 256 254 252
327 328 329 329 329 329 329 328 327 325 324 322 321 319 318 316 315 313 312 311 311 310 310 309 309 308 307 307 306 305 303 301 300 298 297 296 295 295 294 293 293 292 291 290 289 288 288 287 286 284 282 280 279 279 278 278 276 274 272 270 268 266 265 264 262 260 258 256 254
328 329 330 330 330 329 328 327 326 325 323 322 320 318 317 316 315 314 313 312 313 313 312 311 311 310 309 308 308 307 305 303 301 300 298 297 297 296 295 294 294 293 292 291 289 289 288 288 287 285 283 281 279 279 278 278 277 275 273 272 270 268 267 265 264 262 259 257 255
328 329 329 329 329 328 327 326 325 323 322 320 319 317 316 316 316 315 315 314 314 314 314 312 312 311 310 309 309 308 306 304 302 301 300 299 298 297 296 295 295 294 293 292 291 290 289 288 287 285 284 282 280 279 278 277 276 275 274 272 271 270 268 267 265 263 261 259 257
327 328 328 328 327 326 325 324 323 322 320 319 318 317 317 316 316 316 316 315 316 315 314 312 311 310 310 309 308 308 306 304 303 301 300 299 298 297 296 296 296 295 294 293 291 290 289 288 287 286 284 282 281 279 279 278 276 275 274 273 271 270 269 268 267 265 263 261 259
326 326 326 326 325 324 323 322 321 320 319 318 318 317 317 317 317 317 316 316 316 315 313 311 309 309 308 308 307 306 305 304 302 300 299 298 297 297 297 297 296 295 294 293 291 291 290 288 287 286 285 283 281 280 279 278 277 276 274 273 272 271 270 269 267 266 264 262 260
325 325 325 324 323 322 321 321 320 319 318 318 318 318 318 318 317 317 317 316 315 313 311 309 308 307 306 306 305 304 303 302 301 299 298 298 297 297 297 296 295 294 293 292 291 290 290 289 288 286 285 283 281 280 279 278 277 276 275 274 273 272 271 269 268 266 264 263 261
324 324 323 322 322 321 321 320 319 319 319 318 318 318 318 317 317 317 317 315 314 312 310 309 308 307 306 305 304 303 302 301 300 299 299 298 297 297 297 296 294 293 292 291 291 290 289 289 288 287 285 283 282 281 280 278 277 276 275 274 274 273 272 270 268 266 264 263 261
323 322 321 321 321 321 320 320 319 319 319 318 318 318 318 317 317 316 315 314 313 311 310 309 308 307 306 305 304 302 301 300 299 299 299 299 298 297 297 296 294 292 291 291 291 290 289 287 286 286 285 283 282 281 280 279 277 275 274 274 273 273 272 271 269 267 265 263 261
322 321 321 321 321 321 320 320 320 319 319 318 318 318 317 317 316 315 314 313 312 311 310 310 309 307 306 305 304 302 301 299 298 298 298 298 298 298 297 296 294 293 292 291 291 290 288 285 283 283 282 282 281 280 280 279 277 275 273 271 271 270 269 269 268 266 264 262 260
321 321 321 321 321 320 320 320 319 318 318 318 318 317 317 316 315 314 313 311 311 311 310 310 308 307 306 304 303 302 300 299 298 297 297 297 298 297 296 295 294 293 292 292 291 289 287 284 282 282 282 281 281 280 279 278 277 275 272 270 268 266 265 264 263 262 261 260 259
321 320 321 321 321 320 319 319 318 318 317 317 317 316 316 315 314 313 311 310 310 310 310 309 308 307 305 303 302 300 299 299 298 297 297 296 296 296 296 295 294 293 292 292 291 289 288 286 285 284 284 283 282 281 280 279 278 276 274 271 268 265 263 261 260 260 259 258 257
320 320 320 321 320 319 318 318 317 316 316 316 315 315 314 314 312 311 310 309 309 309 308 308 307 306 304 302 300 299 299 298 298 297 297 296 295 295 294 294 293 293 293 292 291 290 288 287 287 286 285 284 283 282 281 280 279 277 276 273 271 269 266 263 261 260 258 257 256
320 320 320 319 318 317 317 316 315 315 315 315 314 314 313 312 310 310 309 308 308 308 307 306 306 304 302 300 299 299 299 298 298 297 297 296 295 294 294 293 293 293 293 292 291 290 289 288 288 287 286 285 284 282 281 280 278 277 275 273 272 271 270 267 264 261 258 255 254
320 320 319 317 316 315 315 314 314 314 314 313 313 312 311 310 309 308 308 308 307 306 305 305 304 302 300 299 299 298 298 297 297 297 296 295 294 294 294 293 293 293 293 292 291 290 289 289 288 287 286 286 284 282 280 278 277 275 273 272 272 271 270 269 266 262 259 256 253
320 319 318 316 315 314 313 314 314 314 313 312 311 310 309 308 307 307 307 306 306 305 305 304 302 301 299 299 298 298 297 297 297 296 295 295 294 294 294 294 293 293 293 292 292 291 290 289 289 288 287 287 285 283 281 279 277 275 273 272 271 270 269 267 265 263 262 260 257
319 318 317 315 314 313 313 313 313 313 312 311 310 309 308 307 306 306 306 306 305 305 305 304 302 300 300 300 299 298 297 297 296 296 295 295 294 294 294 294 293 293 293 292 292 291 291 290 290 289 289 288 287 285 283 281 280 278 276 274 273 271 269 267 267 267 269 269 266
318 318 316 314 313 313 313 313 312 312 311 310 308 307 307 306 306 306 306 306 306 305 303 302 301 300 299 299 298 298 297 297 296 296 295 295 294 294 293 293 293 293 293 292 292 292 292 292 291 291 290 290 289 287 285 284 282 280 278 276 274 272 271 270 271 273 275 275 273
318 318 316 314 313 313 312 312 312 311 310 309 308 307 307 307 306 306 306 306 305 304 302 301 299 298 297 297 297 296 296 296 296 296 296 296 295 294 293 292 292 292 293 293 293 293 293 293 292 292 292 291 290 288 287 285 282 280 278 276 275 274 274 275 276 277 277 277 274
318 317 316 315 314 313 312 312 311 311 310 308 307 307 307 307 306 306 306 306 305 303 301 300 299 298 298 297 296 296 296 296 296 296 296 296 295 294 293 292 292 293 293 294 293 294 294 293 293 293 293 292 291 289 287 284 282 279 277 277 277 277 278 279 279 279 278 276 273
318 317 315 314 313 313 312 311 311 310 309 308 307 307 307 307 306 306 306 306 305 303 302 301 300 299 299 298 298 297 296 296 296 296 296 296 295 293 292 292 292 293 294 294 294 294 295 294 294 294 294 293 291 289 287 285 283 281 280 280 281 281 282 281 280 278 276 273 271
317 316 315 314 313 312 312 311 310 309 308 307 307 307 307 307 306 306 306 306 304 303 302 301 301 300 299 299 298 297 297 296 296 296 296 295 294 293 292 292 292 293 294 295 295 295 295 295 295 295 294 293 292 290 289 288 287 286 285 284 284 283 282 281 278 276 274 272 270
317 316 314 313 312 311 311 310 309 308 307 306 306 306 306 306 306 306 306 305 304 302 301 301 300 300 299 299 299 298 297 297 296 295 294 294 293 292 291 291 292 293 294 295 295 296 296 295 295 295 295 294 292 291 291 290 290 288 287 285 284 283 281 278 276 273 271 270 270
316 315 314 312 311 310 309 308 307 307 306 305 306 306 306 306 305 305 305 304 303 301 301 300 299 299 300 300 299 298 298 297 296 295 293 292 292 292 291 291 291 292 294 295 296 296 296 296 296 295 295 293 292 292 292 291 289 287 285 284 282 281 279 276 274 272 271 270 271
315 314 313 311 310 309 308 307 306 305 305 305 305 306 306 305 305 305 304 304 302 301 300 299 299 299 299 299 299 298 297 297 296 295 293 292 292 292 291 291 291 292 293 294 296 296 296 296 295 295 295 293 292 292 292 290 288 286 285 283 282 281 279 277 274 273 272 273 273
314 313 312 311 310 309 308 306 306 305 305 304 304 304 305 305 305 305 305 303 302 301 300 299 299 298 299 299 298 297 296 295 295 294 294 293 292 292 291 290 290 291 293 294 296 296 296 295 295 295 294 294 294 294 293 292 290 289 287 286 284 283 281 280 279 277 276 275 274